Time,TemperatureF,DewpointF,PressureIn,WindDirection,WindDirectionDegrees,WindSpeedMPH,WindSpeedGustMPH,Humidity,HourlyPrecipIn,Conditions,Clouds,dailyrainin,SoftwareType,DateUTC
2013-02-19 00:01:00,39.0,35.0,29.83,WSW,245,17.0,31.0,84,0.00,,,0.00,,2013-02-19 08:01:00,
2013-02-19 00:11:00,39.0,35.0,29.83,WSW,245,17.0,31.0,84,0.00,,,0.00,,2013-02-19 08:11:00,
2013-02-19 00:21:00,39.0,35.0,29.83,SW,227,18.0,27.0,84,0.00,,,0.00,,2013-02-19 08:21:00,
2013-02-19 00:31:00,39.0,34.0,29.83,WSW,249,18.0,29.0,82,0.00,,,0.00,,2013-02-19 08:31:00,
2013-02-19 00:41:00,39.0,34.0,29.83,WSW,249,18.0,29.0,82,0.00,,,0.00,,2013-02-19 08:41:00,
2013-02-19 00:52:00,39.0,34.0,29.82,West,262,16.0,27.0,82,0.00,,,0.00,,2013-02-19 08:52:00,
2013-02-19 01:01:00,39.0,34.0,29.81,South,190,15.0,32.0,83,0.00,,,0.00,,2013-02-19 09:01:00,
2013-02-19 01:11:00,39.0,34.0,29.81,South,190,15.0,32.0,83,0.00,,,0.00,,2013-02-19 09:11:00,
2013-02-19 01:21:00,39.0,34.0,29.80,WSW,247,14.0,29.0,83,0.00,,,0.00,,2013-02-19 09:21:00,
2013-02-19 01:31:00,39.0,34.0,29.78,WSW,239,17.0,33.0,83,0.00,,,0.00,,2013-02-19 09:31:00,
2013-02-19 01:41:00,39.0,34.0,29.78,WSW,239,17.0,33.0,83,0.00,,,0.00,,2013-02-19 09:41:00,
2013-02-19 01:52:00,39.0,34.0,29.80,SW,217,16.0,33.0,82,0.00,,,0.00,,2013-02-19 09:52:00,
2013-02-19 02:01:00,39.0,34.0,29.81,SW,234,16.0,32.0,82,0.00,,,0.00,,2013-02-19 10:01:00,
2013-02-19 02:11:00,39.0,34.0,29.81,SW,234,16.0,32.0,82,0.00,,,0.00,,2013-02-19 10:11:00,
2013-02-19 02:21:00,39.0,34.0,29.80,SSW,207,17.0,28.0,82,0.00,,,0.00,,2013-02-19 10:21:00,
2013-02-19 02:31:00,39.0,33.0,29.78,SSW,194,18.0,27.0,80,0.00,,,0.00,,2013-02-19 10:31:00,
2013-02-19 02:41:00,39.0,33.0,29.78,SSW,194,18.0,27.0,80,0.00,,,0.00,,2013-02-19 10:41:00,
2013-02-19 02:52:00,39.0,34.0,29.76,South,171,21.0,32.0,82,0.00,,,0.00,,2013-02-19 10:52:00,
2013-02-19 03:01:00,39.0,33.0,29.75,SSW,199,15.0,34.0,80,0.00,,,0.00,,2013-02-19 11:01:00,
2013-02-19 03:11:00,39.0,33.0,29.75,SSW,199,15.0,34.0,80,0.00,,,0.00,,2013-02-19 11:11:00,
2013-02-19 03:21:00,39.0,34.0,29.76,SSW,192,19.0,30.0,81,0.00,,,0.00,,2013-02-19 11:21:00,
2013-02-19 03:31:00,39.0,33.0,29.75,SSW,207,17.0,27.0,80,0.00,,,0.00,,2013-02-19 11:31:00,
2013-02-19 03:42:00,39.0,33.0,29.75,SSW,207,17.0,27.0,80,0.00,,,0.00,,2013-02-19 11:42:00,
2013-02-19 03:52:00,39.0,33.0,29.74,South,171,16.0,32.0,80,0.00,,,0.00,,2013-02-19 11:52:00,
2013-02-19 04:01:00,38.0,33.0,29.75,SSE,162,13.0,30.0,82,0.00,,,0.00,,2013-02-19 12:01:00,
2013-02-19 04:12:00,38.0,33.0,29.75,SSE,162,13.0,30.0,82,0.00,,,0.00,,2013-02-19 12:12:00,
2013-02-19 04:21:00,38.0,33.0,29.75,SSE,165,15.0,27.0,83,0.00,,,0.00,,2013-02-19 12:21:00,
2013-02-19 04:32:00,38.0,34.0,29.76,ESE,119,15.0,28.0,84,0.00,,,0.00,,2013-02-19 12:32:00,
2013-02-19 04:42:00,38.0,34.0,29.76,ESE,119,15.0,28.0,84,0.00,,,0.00,,2013-02-19 12:42:00,
2013-02-19 04:52:00,38.0,34.0,29.78,South,182,12.0,29.0,85,0.00,,,0.00,,2013-02-19 12:52:00,
2013-02-19 05:01:00,38.0,34.0,29.79,SW,228,12.0,26.0,86,0.00,,,0.00,,2013-02-19 13:01:00,
2013-02-19 05:11:00,38.0,34.0,29.79,SW,228,12.0,26.0,86,0.00,,,0.00,,2013-02-19 13:11:00,
2013-02-19 05:22:00,38.0,34.0,29.79,SW,218,11.0,18.0,86,0.00,,,0.00,,2013-02-19 13:22:00,
2013-02-19 05:31:00,38.0,34.0,29.79,WSW,252,14.0,26.0,85,0.00,,,0.00,,2013-02-19 13:31:00,
2013-02-19 05:41:00,38.0,34.0,29.79,WSW,252,14.0,26.0,85,0.00,,,0.00,,2013-02-19 13:41:00,
2013-02-19 05:52:00,38.0,34.0,29.79,SSW,213,15.0,25.0,87,0.00,,,0.00,,2013-02-19 13:52:00,
2013-02-19 06:01:00,37.0,34.0,29.80,SW,235,14.0,22.0,88,0.00,,,0.00,,2013-02-19 14:01:00,
2013-02-19 06:11:00,37.0,34.0,29.80,SW,235,14.0,22.0,88,0.00,,,0.00,,2013-02-19 14:11:00,
2013-02-19 06:21:00,37.0,34.0,29.80,SSW,211,10.0,19.0,88,0.00,,,0.00,,2013-02-19 14:21:00,
2013-02-19 06:32:00,37.0,34.0,29.81,WSW,244,11.0,19.0,88,0.00,,,0.00,,2013-02-19 14:32:00,
2013-02-19 06:41:00,37.0,34.0,29.81,WSW,244,11.0,19.0,88,0.00,,,0.00,,2013-02-19 14:41:00,
2013-02-19 06:52:00,37.0,34.0,29.79,SW,214,10.0,23.0,88,0.00,,,0.00,,2013-02-19 14:52:00,
2013-02-19 07:01:00,37.0,34.0,29.78,SSW,206,15.0,26.0,88,0.00,,,0.00,,2013-02-19 15:01:00,
2013-02-19 07:11:00,37.0,34.0,29.78,SSW,206,15.0,26.0,88,0.00,,,0.00,,2013-02-19 15:11:00,
2013-02-19 07:21:00,37.0,34.0,29.78,SW,225,19.0,30.0,88,0.00,,,0.00,,2013-02-19 15:21:00,
2013-02-19 07:31:00,37.0,34.0,29.76,SW,219,17.0,23.0,88,0.00,,,0.00,,2013-02-19 15:31:00,
2013-02-19 07:41:00,37.0,34.0,29.76,SW,219,17.0,23.0,88,0.00,,,0.00,,2013-02-19 15:41:00,
2013-02-19 07:52:00,37.0,34.0,29.75,SSW,196,15.0,28.0,88,0.00,,,0.00,,2013-02-19 15:52:00,
2013-02-19 08:01:00,37.0,34.0,29.76,South,188,15.0,33.0,87,0.00,,,0.00,,2013-02-19 16:01:00,
2013-02-19 08:11:00,37.0,34.0,29.76,South,188,15.0,33.0,87,0.00,,,0.00,,2013-02-19 16:11:00,
2013-02-19 08:21:00,37.0,33.0,29.75,South,177,17.0,30.0,85,0.00,,,0.00,,2013-02-19 16:21:00,
2013-02-19 08:31:00,37.0,33.0,29.76,WSW,241,17.0,33.0,84,0.00,,,0.00,,2013-02-19 16:31:00,
2013-02-19 08:41:00,37.0,33.0,29.76,WSW,241,17.0,33.0,84,0.00,,,0.00,,2013-02-19 16:41:00,
2013-02-19 08:52:00,37.0,33.0,29.76,SW,215,16.0,28.0,84,0.00,,,0.00,,2013-02-19 16:52:00,
2013-02-19 09:01:00,38.0,34.0,29.76,SW,228,17.0,31.0,84,0.00,,,0.00,,2013-02-19 17:01:00,
2013-02-19 09:11:00,38.0,34.0,29.76,SW,228,17.0,31.0,84,0.00,,,0.00,,2013-02-19 17:11:00,
2013-02-19 09:21:00,39.0,34.0,29.78,WSW,237,13.0,32.0,82,0.00,,,0.00,,2013-02-19 17:21:00,
2013-02-19 09:31:00,39.0,33.0,29.77,SW,236,11.0,21.0,80,0.00,,,0.00,,2013-02-19 17:31:00,
2013-02-19 09:41:00,39.0,33.0,29.77,SW,236,11.0,21.0,80,0.00,,,0.00,,2013-02-19 17:41:00,
2013-02-19 09:52:00,39.0,33.0,29.76,WSW,240,19.0,25.0,79,0.00,,,0.00,,2013-02-19 17:52:00,
2013-02-19 10:01:00,40.0,34.0,29.78,SW,234,12.0,28.0,79,0.00,,,0.00,,2013-02-19 18:01:00,
2013-02-19 10:11:00,40.0,34.0,29.78,SW,234,12.0,28.0,79,0.00,,,0.00,,2013-02-19 18:11:00,
2013-02-19 10:21:00,40.0,33.0,29.78,West,263,15.0,25.0,77,0.00,,,0.00,,2013-02-19 18:21:00,
2013-02-19 10:31:00,41.0,35.0,29.77,WSW,245,15.0,27.0,79,0.00,,,0.00,,2013-02-19 18:31:00,
2013-02-19 10:41:00,41.0,34.0,29.76,SSW,210,18.0,33.0,75,0.00,,,0.00,,2013-02-19 18:41:00,
2013-02-19 10:52:00,41.0,34.0,29.76,SSW,210,18.0,33.0,75,0.00,,,0.00,,2013-02-19 18:52:00,
2013-02-19 11:01:00,40.0,34.0,29.75,SSW,205,18.0,32.0,80,0.00,,,0.00,,2013-02-19 19:01:00,
2013-02-19 11:11:00,40.0,34.0,29.75,SSW,205,18.0,32.0,80,0.00,,,0.00,,2013-02-19 19:11:00,
2013-02-19 11:21:00,39.0,33.0,29.74,SW,229,18.0,28.0,79,0.00,,,0.00,,2013-02-19 19:21:00,
2013-02-19 11:31:00,40.0,34.0,29.73,SSW,192,16.0,28.0,79,0.00,,,0.00,,2013-02-19 19:31:00,
2013-02-19 11:41:00,40.0,34.0,29.73,SSW,192,16.0,28.0,79,0.00,,,0.00,,2013-02-19 19:41:00,
2013-02-19 11:52:00,40.0,34.0,29.73,SW,236,13.0,32.0,78,0.00,,,0.00,,2013-02-19 19:52:00,
2013-02-19 12:01:00,40.0,34.0,29.72,SSW,197,15.0,28.0,78,0.00,,,0.00,,2013-02-19 20:01:00,
2013-02-19 12:11:00,40.0,34.0,29.72,SSW,197,15.0,28.0,78,0.00,,,0.00,,2013-02-19 20:11:00,
2013-02-19 12:21:00,40.0,34.0,29.71,SSW,194,16.0,26.0,80,0.00,,,0.00,,2013-02-19 20:21:00,
2013-02-19 12:31:00,39.0,35.0,29.71,SSW,195,17.0,27.0,84,0.00,,,0.00,,2013-02-19 20:31:00,
2013-02-19 12:41:00,39.0,35.0,29.71,SSW,195,17.0,27.0,84,0.00,,,0.00,,2013-02-19 20:41:00,
2013-02-19 12:52:00,39.0,35.0,29.71,SSW,211,18.0,31.0,86,0.01,,,0.01,,2013-02-19 20:52:00,
2013-02-19 13:01:00,38.0,34.0,29.71,WNW,299,13.0,28.0,87,0.03,,,0.03,,2013-02-19 21:01:00,
2013-02-19 13:11:00,38.0,34.0,29.71,WNW,299,13.0,28.0,87,0.03,,,0.03,,2013-02-19 21:11:00,
2013-02-19 13:21:00,38.0,35.0,29.70,SW,233,15.0,26.0,89,0.06,,,0.06,,2013-02-19 21:21:00,
2013-02-19 13:31:00,38.0,35.0,29.71,SW,227,12.0,27.0,89,0.06,,,0.06,,2013-02-19 21:31:00,
2013-02-19 13:42:00,38.0,35.0,29.71,SW,227,12.0,27.0,89,0.06,,,0.06,,2013-02-19 21:42:00,
2013-02-19 13:51:00,37.0,34.0,29.70,SW,229,18.0,26.0,90,0.09,,,0.10,,2013-02-19 21:51:00,
2013-02-19 14:01:00,38.0,35.0,29.68,South,180,15.0,28.0,90,0.08,,,0.11,,2013-02-19 22:01:00,
2013-02-19 14:11:00,38.0,35.0,29.68,South,180,15.0,28.0,90,0.08,,,0.11,,2013-02-19 22:11:00,
2013-02-19 14:21:00,38.0,35.0,29.68,SSW,212,15.0,28.0,90,0.05,,,0.11,,2013-02-19 22:21:00,
2013-02-19 14:31:00,38.0,35.0,29.68,South,172,18.0,26.0,90,0.05,,,0.11,,2013-02-19 22:31:00,
2013-02-19 14:41:00,38.0,35.0,29.68,South,172,18.0,26.0,90,0.05,,,0.11,,2013-02-19 22:41:00,
2013-02-19 14:52:00,38.0,35.0,29.67,SW,227,16.0,27.0,90,0.02,,,0.12,,2013-02-19 22:52:00,
2013-02-19 15:01:00,38.0,35.0,29.68,SW,221,12.0,28.0,90,0.04,,,0.15,,2013-02-19 23:01:00,
2013-02-19 15:11:00,38.0,35.0,29.68,SW,221,12.0,28.0,90,0.04,,,0.15,,2013-02-19 23:11:00,
2013-02-19 15:21:00,38.0,35.0,29.68,South,175,18.0,26.0,90,0.10,,,0.21,,2013-02-19 23:21:00,
2013-02-19 15:31:00,38.0,35.0,29.68,SW,223,14.0,21.0,89,0.11,,,0.22,,2013-02-19 23:31:00,
2013-02-19 15:41:00,38.0,35.0,29.68,SW,223,14.0,21.0,89,0.11,,,0.22,,2013-02-19 23:41:00,
2013-02-19 15:52:00,38.0,35.0,29.67,South,184,12.0,20.0,89,0.10,,,0.22,,2013-02-19 23:52:00,
2013-02-19 16:01:00,38.0,35.0,29.67,SW,222,10.0,21.0,88,0.07,,,0.22,,2013-02-20 00:01:00,
2013-02-19 16:11:00,38.0,35.0,29.67,SW,222,10.0,21.0,88,0.07,,,0.22,,2013-02-20 00:11:00,
2013-02-19 16:21:00,38.0,35.0,29.66,South,189,12.0,21.0,88,0.01,,,0.22,,2013-02-20 00:21:00,
2013-02-19 16:31:00,38.0,35.0,29.65,South,190,14.0,24.0,88,0.00,,,0.22,,2013-02-20 00:31:00,
2013-02-19 16:41:00,38.0,35.0,29.65,South,190,14.0,24.0,88,0.00,,,0.22,,2013-02-20 00:41:00,
2013-02-19 16:52:00,37.0,34.0,29.64,SW,219,14.0,23.0,89,0.00,,,0.22,,2013-02-20 00:52:00,
2013-02-19 17:02:00,37.0,34.0,29.65,SW,232,10.0,21.0,89,0.00,,,0.22,,2013-02-20 01:02:00,
2013-02-19 17:11:00,37.0,34.0,29.65,SW,232,10.0,21.0,89,0.00,,,0.22,,2013-02-20 01:11:00,
2013-02-19 17:21:00,37.0,34.0,29.64,SW,216,15.0,23.0,89,0.00,,,0.22,,2013-02-20 01:21:00,
2013-02-19 17:31:00,37.0,34.0,29.64,SW,229,17.0,25.0,89,0.00,,,0.22,,2013-02-20 01:31:00,
2013-02-19 17:41:00,37.0,34.0,29.64,SW,229,17.0,25.0,89,0.00,,,0.22,,2013-02-20 01:41:00,
2013-02-19 17:52:00,37.0,34.0,29.64,SW,234,10.0,23.0,88,0.00,,,0.22,,2013-02-20 01:52:00,
2013-02-19 18:01:00,37.0,34.0,29.64,SW,216,11.0,17.0,87,0.00,,,0.22,,2013-02-20 02:01:00,
2013-02-19 18:11:00,37.0,34.0,29.64,SW,216,11.0,17.0,87,0.00,,,0.22,,2013-02-20 02:11:00,
2013-02-19 18:21:00,36.0,33.0,29.62,SW,221,11.0,19.0,87,0.00,,,0.22,,2013-02-20 02:21:00,
2013-02-19 18:31:00,36.0,33.0,29.61,SW,236,13.0,24.0,87,0.00,,,0.22,,2013-02-20 02:31:00,
2013-02-19 18:41:00,36.0,33.0,29.61,SW,236,13.0,24.0,87,0.00,,,0.22,,2013-02-20 02:41:00,
2013-02-19 18:52:00,36.0,33.0,29.60,West,270,16.0,25.0,88,0.01,,,0.23,,2013-02-20 02:52:00,
2013-02-19 19:01:00,36.0,33.0,29.59,South,175,14.0,29.0,89,0.02,,,0.24,,2013-02-20 03:01:00,
2013-02-19 19:11:00,36.0,33.0,29.59,South,175,14.0,29.0,89,0.02,,,0.24,,2013-02-20 03:11:00,
2013-02-19 19:21:00,36.0,33.0,29.58,South,191,20.0,31.0,89,0.04,,,0.26,,2013-02-20 03:21:00,
2013-02-19 19:31:00,35.0,32.0,29.57,SSW,213,16.0,31.0,89,0.05,,,0.27,,2013-02-20 03:31:00,
2013-02-19 19:41:00,35.0,32.0,29.57,SSW,213,16.0,31.0,89,0.05,,,0.27,,2013-02-20 03:41:00,
2013-02-19 19:52:00,34.0,31.0,29.58,South,185,13.0,31.0,90,0.07,,,0.30,,2013-02-20 03:52:00,
2013-02-19 20:01:00,35.0,33.0,29.57,SSW,198,15.0,30.0,91,0.08,,,0.32,,2013-02-20 04:01:00,
2013-02-19 20:11:00,35.0,33.0,29.57,SSW,198,15.0,30.0,91,0.08,,,0.32,,2013-02-20 04:11:00,
2013-02-19 20:21:00,35.0,33.0,29.56,SW,229,17.0,29.0,91,0.07,,,0.32,,2013-02-20 04:21:00,
2013-02-19 20:31:00,34.0,32.0,29.57,SSW,193,17.0,29.0,91,0.07,,,0.34,,2013-02-20 04:31:00,
2013-02-19 20:41:00,34.0,32.0,29.57,SSW,193,17.0,29.0,91,0.07,,,0.34,,2013-02-20 04:41:00,
2013-02-19 20:52:00,34.0,32.0,29.57,WSW,244,10.0,20.0,91,0.05,,,0.35,,2013-02-20 04:52:00,
2013-02-19 21:01:00,33.0,31.0,29.57,SSW,198,15.0,21.0,91,0.04,,,0.36,,2013-02-20 05:01:00,
2013-02-19 21:12:00,33.0,31.0,29.57,SSW,198,15.0,21.0,91,0.04,,,0.36,,2013-02-20 05:12:00,
2013-02-19 21:22:00,34.0,32.0,29.58,SW,221,5.0,15.0,91,0.04,,,0.36,,2013-02-20 05:22:00,
2013-02-19 21:31:00,33.0,31.0,29.58,SSW,202,5.0,10.0,91,0.02,,,0.36,,2013-02-20 05:31:00,
2013-02-19 21:42:00,33.0,31.0,29.58,SSW,202,5.0,10.0,91,0.02,,,0.36,,2013-02-20 05:42:00,
2013-02-19 21:52:00,33.0,31.0,29.59,NW,312,5.0,12.0,92,0.02,,,0.37,,2013-02-20 05:52:00,
2013-02-19 22:01:00,32.0,30.0,29.58,NW,306,12.0,24.0,92,0.01,,,0.37,,2013-02-20 06:01:00,
2013-02-19 22:11:00,32.0,30.0,29.57,West,259,10.0,20.0,92,0.01,,,0.37,,2013-02-20 06:11:00,
2013-02-19 22:21:00,32.0,30.0,29.57,West,259,10.0,20.0,92,0.01,,,0.37,,2013-02-20 06:21:00,
2013-02-19 22:31:00,32.0,29.0,29.58,WNW,288,9.0,17.0,89,0.01,,,0.37,,2013-02-20 06:31:00,
2013-02-19 22:41:00,32.0,29.0,29.58,WNW,288,9.0,17.0,89,0.01,,,0.37,,2013-02-20 06:41:00,
2013-02-19 22:52:00,32.0,28.0,29.57,West,265,10.0,19.0,86,0.00,,,0.37,,2013-02-20 06:52:00,
2013-02-19 23:01:00,32.0,28.0,29.58,West,269,13.0,20.0,85,0.00,,,0.37,,2013-02-20 07:01:00,
2013-02-19 23:11:00,32.0,28.0,29.58,West,269,13.0,20.0,85,0.00,,,0.37,,2013-02-20 07:11:00,
2013-02-19 23:21:00,31.0,27.0,29.57,NW,306,11.0,22.0,85,0.00,,,0.37,,2013-02-20 07:21:00,
2013-02-19 23:31:00,31.0,27.0,29.57,WNW,294,8.0,18.0,85,0.00,,,0.37,,2013-02-20 07:31:00,
2013-02-19 23:41:00,31.0,27.0,29.57,WNW,294,8.0,18.0,85,0.00,,,0.37,,2013-02-20 07:41:00,
2013-02-19 23:52:00,31.0,27.0,29.56,WSW,257,8.0,14.0,86,0.00,,,0.37,,2013-02-20 07:52:00,